This is the latest recevied weather packets stored in our database for station/object IW1CBG-23. If no packets are shown the sender has not sent any weather packets the latest 10 day(s).
| Time | Temp. | Humidity | Pressure | Rain* | Wind** | Luminosity | Snow |
|---|---|---|---|---|---|---|---|
| 1777316474 | 12.78° C | 99% | 1012 hPa | - | - | - | - |
| 1777315238 | 13.33° C | 99% | 1012.1 hPa | - | - | - | - |
| 1777314000 | 12.78° C | 99% | 1011.9 hPa | - | - | - | - |
| 1777312763 | 13.33° C | 99% | 1011.8 hPa | - | - | - | - |
| 1777311526 | 13.33° C | 99% | 1011.9 hPa | - | - | - | - |
| 1777310291 | 13.89° C | 99% | 1011.6 hPa | - | - | - | - |
| 1777309055 | 14.44° C | 99% | 1011.7 hPa | - | - | - | - |
| 1777307818 | 15° C | 99% | 1011.7 hPa | - | - | - | - |
| 1777305374 | 16.11° C | 99% | 1011.9 hPa | - | - | - | - |
| 1777304137 | 16.67° C | 94% | 1011.9 hPa | - | - | - | - |
| 1777302901 | 17.22° C | 80% | 1012.1 hPa | - | - | - | - |
| 1777301665 | 17.78° C | 77% | 1012.3 hPa | - | - | - | - |
| 1777300430 | 17.78° C | 74% | 1012.4 hPa | - | - | - | - |
| 1777299194 | 18.89° C | 69% | 1012.6 hPa | - | - | - | - |
| 1777297957 | 18.89° C | 69% | 1012.8 hPa | - | - | - | - |
| 1777296721 | 20° C | 65% | 1013.2 hPa | - | - | - | - |
| 1777295480 | 20.56° C | 63% | 1013.3 hPa | - | - | - | - |
| 1777294246 | 18.89° C | 59% | 1013.6 hPa | - | - | - | - |
| 1777293014 | 21.11° C | 50% | 1013.7 hPa | - | - | - | - |
| 1777291773 | 18.89° C | 55% | 1013.9 hPa | - | - | - | - |
| 1777290545 | 20.56° C | 50% | 1014.1 hPa | - | - | - | - |
| 1777289302 | 19.44° C | 55% | 1014.3 hPa | - | - | - | - |
| 1777288062 | 17.78° C | 56% | 1014.3 hPa | - | - | - | - |
| 1777285590 | 20.56° C | 55% | 1014.6 hPa | - | - | - | - |
| 1777284352 | 20° C | 57% | 1014.7 hPa | - | - | - | - |
* Rain since midnight (hover to see other rain measurements)
** Current wind speed in m/s (hover to see current wind gust speed)